Location: Budapest
(47.4979°N, 19.0402°E)
Time: 11:17:45
(UTC+02:00)

Tiangong 1 - Pass Details

Date: 09 October 2017
Orbit: 294 x 321 km, 42.8° (Epoch: 17 October)

Event Time Altitude Azimuth Distance (km) Brightness Sun altitude
Rises 19:07:30 0° 247° (WSW) 2,038 6.0 -11.0°
Reaches altitude 10° 19:09:38 10° 234° (SW) 1,204 4.4 -11.3°
Maximum altitude 19:11:59 27° 173° (S) 646 2.1 -11.7°
Enters shadow 19:13:12 19° 130° (SE) 831 2.3 -11.9°
